Temp
-9 -9 -10 -10 -10 -11 -11 -10 -10 -10 -10 -10 -10 -10 -9 -9 -9 -9 -9 -9 -10 -10 -10 -10 -10 -10 -10 -9 -9 -9 -9 -9 -9 -9 -10 -10 -10 -10 -10 -10 -10 -10 -10
-9 -9 -10 -10 -10 -10 -10 -10 -10 -10 -10 -10 -10 -10 -10 -10 -9 -9 -9 -10 -10 -10 -10 -10 -10 -10 -10 -10 -10 -10 -10 -10 -9 -9 -10 -10 -10 -10 -10 -10 -10 -10 -10
-9 -10 -10 -10 -10 -10 -10 -10 -10 -10 -10 -10 -10 -10 -10 -10 -10 -10 -10 -10 -10 -10 -10 -10 -10 -10 -10 -10 -10 -10 -10 -10 -10 -10 -10 -10 -10 -10 -10 -10 -10 -10 -10
-9 -10 -10 -10 -10 -10 -10 -10 -10 -10 -10 -10 -10 -10 -10 -10 -10 -10 -10 -10 -10 -10 -10 -10 -10 -10 -10 -10 -10 -10 -10 -10 -10 -10 -10 -10 -10 -10 -10 -10 -10 -10 -10
-10 -10 -10 -10 -10 -10 -10 -10 -10 -10 -10 -10 -10 -10 -10 -10 -10 -10 -9 -9 -10 -10 -10 -10 -9 -10 -9 -9 -10 -10 -10 -10 -10 -10 -10 -10 -10 -10 -10 -10 -10 -10 -10
-9 -10 -10 -10 -10 -10 -10 -10 -10 -10 -10 -10 -10 -10 -10 -10 -9 -9 -9 -10 -9 -9 -9 -9 -9 -9 -10 -9 -9 -10 -10 -10 -10 -9 -9 -10 -10 -10 -10 -10 -10 -10 -10
-9 -10 -10 -10 -10 -10 -10 -10 -10 -10 -10 -10 -10 -10 -10 -9 -9 -9 -10 -9 -9 -9 -9 -10 -10 -9 -9 -9 -10 -10 -10 -10 -10 -10 -10 -10 -10 -10 -10 -10 -10 -10 -10
-9 -10 -10 -10 -10 -10 -10 -10 -10 -10 -10 -9 -9 -9 -9 -9 -9 -9 -9 -9 -9 -9 -9 -9 -9 -9 -9 -9 -9 -9 -10 -10 -10 -10 -10 -10 -10 -10 -10 -10 -10 -10 -10
-9 -10 -10 -10 -10 -10 -10 -10 -10 -10 -10 -10 -9 -9 -9 -9 -9 -9 -9 -9 -9 -9 -9 -9 -9 -9 -9 -9 -9 -9 -9 -9 -10 -10 -10 -10 -10 -10 -10 -10 -10 -10 -10
-9 -10 -10 -10 -10 -10 -10 -10 -10 -10 -10 -9 -9 -9 -9 -9 -9 -9 -9 -9 -9 -9 -9 -9 -9 -9 -9 -9 -10 -9 -9 -9 -10 -10 -10 -10 -10 -10 -10 -10 -10 -10 -10
-9 -10 -10 -9 -10 -10 -10 -10 -10 -10 -10 -10 -9 -9 -9 -9 -9 -9 -9 -9 -9 -9 -9 -9 -9 -9 -9 -10 -10 -10 -10 -10 -10 -10 -10 -10 -10 -10 -10 -10 -10 -10 -10
-9 -9 -10 -9 -10 -9 -10 -10 -10 -10 -10 -10 -10 -9 -10 -9 -9 -9 -9 -9 -9 -9 -9 -9 -9 -9 -10 -10 -10 -10 -10 -10 -10 -10 -10 -10 -10 -10 -10 -10 -10 -10 -10
-9 -9 -9 -9 -9 -10 -10 -9 -10 -10 -10 -10 -10 -10 -10 -10 -9 -9 -9 -9 -9 -9 -9 -9 -9 -10 -10 -10 -10 -10 -10 -10 -10 -10 -10 -10 -10 -10 -10 -10 -10 -10 -10
-9 -9 -9 -9 -9 -10 -10 -9 -10 -10 -10 -10 -10 -10 -10 -10 -10 -10 -10 -9 -9 -9 -9 -10 -10 -10 -10 -10 -10 -10 -10 -10 -10 -10 -10 -10 -10 -10 -10 -10 -10 -10 -10
-9 -9 -9 -9 -9 -9 -10 -10 -10 -10 -10 -10 -10 -10 -10 -9 -9 -9 -9 -10 -10 -9 -10 -10 -10 -10 -10 -10 -10 -10 -10 -10 -11 -10 -10 -10 -10 -10 -10 -10 -10 -10 -10
-10 -9 -9 -9 -9 -9 -10 -10 -10 -10 -10 -10 -10 -10 -10 -10 -10 -10 -10 -10 -10 -10 -10 -10 -10 -10 -10 -10 -10 -10 -10 -11 -11 -10 -10 -10 -10 -10 -10 -10 -10 -10 -10
-9 -10 -9 -9 -10 -9 -9 -10 -10 -10 -10 -10 -10 -10 -10 -10 -11 -11 -10 -10 -10 -10 -10 -10 -10 -10 -10 -10 -10 -10 -10 -10 -11 -11 -11 -10 -10 -10 -10 -10 -10 -11 -11
-8 -10 -10 -9 -10 -10 -10 -9 -9 -10 -10 -10 -10 -10 -10 -10 -11 -10 -10 -10 -10 -10 -10 -11 -10 -10 -10 -10 -11 -11 -11 -11 -11 -11 -11 -10 -10 -10 -10 -10 -10 -10 -10
-9 -9 -10 -11 -10 -10 -10 -10 -10 -9 -10 -10 -10 -10 -10 -10 -10 -11 -11 -10 -10 -11 -11 -10 -10 -10 -10 -11 -11 -11 -11 -11 -11 -11 -11 -11 -11 -11 -11 -10 -10 -10 -10
-9 -9 -9 -9 -11 -10 -10 -10 -10 -10 -10 -10 -10 -10 -10 -10 -11 -11 -11 -11 -11 -11 -11 -11 -11 -11 -11 -11 -11 -11 -11 -10 -11 -11 -11 -11 -11 -11 -11 -11 -11 -11 -11
-9 -10 -10 -9 -10 -11 -10 -10 -10 -10 -10 -10 -10 -10 -10 -10 -11 -11 -11 -11 -11 -11 -11 -11 -11 -11 -11 -11 -11 -11 -11 -11 -11 -11 -11 -11 -11 -11 -11 -11 -11 -11 -11
-10 -9 -10 -10 -10 -10 -10 -10 -10 -10 -10 -10 -10 -10 -10 -10 -11 -11 -11 -12 -11 -11 -12 -11 -11 -11 -11 -11 -11 -11 -12 -12 -11 -11 -12 -11 -11 -11 -11 -11 -11 -11 -12
-10 -10 -10 -10 -10 -10 -11 -10 -10 -10 -10 -10 -11 -10 -10 -10 -11 -11 -11 -11 -11 -11 -11 -11 -11 -11 -11 -11 -11 -11 -11 -12 -12 -12 -12 -12 -12 -12 -12 -12 -11 -11 -12
-10 -10 -10 -10 -10 -10 -11 -11 -10 -11 -10 -10 -11 -11 -11 -11 -11 -11 -11 -11 -12 -12 -11 -12 -12 -12 -12 -12 -11 -11 -11 -11 -11 -11 -12 -12 -12 -12 -12 -13 -12 -12 -12
-10 -10 -9 -9 -11 -11 -10 -11 -10 -10 -11 -11 -11 -11 -11 -11 -11 -11 -11 -11 -11 -11 -12 -12 -12 -12 -12 -12 -12 -12 -12 -12 -12 -11 -11 -12 -12 -12 -13 -12 -12 -12 -13
-10 -10 -10 -9 -11 -11 -11 -11 -10 -11 -11 -11 -11 -11 -12 -12 -11 -11 -11 -11 -12 -12 -11 -11 -12 -12 -12 -12 -12 -12 -13 -13 -13 -13 -12 -12 -12 -13 -13 -13 -13 -13 -13
Height
5891 5890 5887 5887 5886 5886 5884 5883 5882 5882 5882 5882 5881 5880 5880 5879 5879 5879 5880 5879 5878 5878 5877 5877 5877 5877 5876 5876 5875 5875 5874 5874 5873 5871 5871 5870 5870 5869 5869 5869 5868 5867 5867
5891 5889 5887 5887 5886 5886 5885 5884 5884 5883 5883 5883 5882 5881 5881 5881 5881 5880 5880 5880 5879 5878 5878 5878 5878 5877 5877 5876 5875 5875 5875 5874 5873 5872 5871 5871 5870 5870 5870 5869 5869 5869 5869
5892 5889 5887 5886 5886 5886 5885 5885 5884 5884 5884 5884 5884 5883 5882 5882 5882 5882 5881 5880 5880 5879 5879 5878 5878 5877 5877 5876 5876 5876 5875 5875 5875 5873 5872 5872 5871 5871 5870 5870 5870 5869 5868
5889 5889 5887 5886 5886 5886 5886 5885 5885 5885 5885 5885 5884 5883 5883 5883 5883 5882 5882 5881 5881 5880 5880 5879 5879 5878 5877 5877 5876 5876 5876 5876 5875 5873 5873 5872 5872 5872 5871 5870 5869 5869 5868
5889 5888 5887 5886 5886 5885 5885 5885 5885 5885 5885 5885 5884 5884 5884 5883 5883 5883 5882 5882 5882 5881 5881 5881 5880 5879 5878 5878 5877 5877 5876 5876 5875 5875 5873 5872 5872 5871 5870 5870 5869 5868 5868
5889 5888 5887 5886 5886 5886 5885 5885 5885 5884 5884 5884 5883 5883 5883 5883 5882 5882 5882 5881 5882 5881 5881 5881 5881 5880 5880 5880 5879 5878 5877 5876 5875 5874 5874 5873 5872 5871 5869 5869 5868 5867 5867
5888 5887 5886 5886 5886 5886 5885 5884 5885 5884 5884 5883 5884 5884 5883 5883 5883 5882 5882 5882 5882 5881 5881 5881 5881 5881 5881 5880 5879 5879 5878 5877 5876 5874 5873 5872 5871 5870 5869 5868 5867 5866 5865
5886 5885 5885 5885 5885 5885 5884 5884 5883 5883 5883 5883 5883 5883 5884 5884 5883 5883 5883 5882 5882 5881 5881 5880 5880 5880 5880 5880 5879 5879 5878 5877 5876 5875 5872 5871 5870 5869 5868 5867 5865 5864 5863
5884 5884 5884 5884 5883 5883 5882 5883 5882 5882 5882 5882 5882 5882 5883 5883 5883 5882 5882 5881 5881 5881 5880 5880 5879 5879 5879 5878 5878 5877 5876 5876 5875 5874 5872 5871 5869 5868 5867 5865 5864 5863 5861
5882 5882 5882 5881 5881 5881 5880 5881 5881 5880 5880 5880 5881 5881 5881 5881 5881 5881 5881 5881 5880 5880 5879 5879 5879 5879 5878 5876 5875 5875 5874 5874 5873 5872 5870 5870 5868 5866 5865 5864 5862 5860 5858
5880 5880 5879 5879 5879 5879 5878 5878 5878 5878 5878 5878 5879 5879 5879 5879 5879 5879 5879 5879 5878 5878 5878 5878 5877 5877 5876 5875 5874 5873 5872 5871 5870 5869 5867 5866 5866 5864 5862 5861 5859 5857 5855
5876 5877 5877 5876 5876 5875 5876 5875 5875 5875 5876 5875 5875 5875 5876 5876 5876 5877 5877 5876 5876 5876 5875 5876 5875 5874 5874 5873 5872 5871 5870 5869 5867 5865 5863 5861 5860 5859 5858 5856 5854 5852 5851
5874 5873 5873 5873 5873 5873 5872 5872 5872 5872 5873 5872 5871 5872 5872 5872 5872 5873 5874 5873 5873 5873 5873 5873 5872 5872 5871 5870 5869 5867 5866 5865 5863 5862 5860 5858 5855 5853 5852 5850 5848 5847 5845
5870 5870 5869 5869 5869 5870 5868 5868 5869 5869 5869 5868 5868 5868 5868 5868 5869 5870 5870 5870 5870 5870 5870 5869 5869 5868 5868 5866 5865 5864 5863 5861 5859 5857 5855 5853 5850 5849 5846 5843 5840 5839 5837
5866 5866 5866 5865 5864 5865 5865 5864 5865 5864 5865 5864 5865 5863 5863 5864 5865 5866 5866 5865 5865 5865 5865 5864 5863 5862 5862 5862 5861 5859 5858 5857 5854 5852 5850 5848 5845 5843 5840 5838 5836 5833 5829
5861 5861 5862 5862 5860 5860 5861 5861 5861 5860 5860 5860 5861 5860 5859 5859 5859 5859 5860 5860 5861 5860 5860 5859 5858 5858 5857 5856 5855 5853 5851 5848 5847 5845 5842 5839 5836 5834 5831 5829 5826 5823 5819
5860 5856 5856 5857 5857 5855 5857 5857 5857 5857 5855 5856 5858 5856 5855 5855 5855 5854 5854 5855 5854 5854 5854 5854 5853 5852 5852 5851 5849 5846 5844 5841 5840 5837 5835 5832 5829 5826 5824 5820 5817 5814 5811
5856 5855 5850 5850 5851 5850 5851 5852 5852 5853 5851 5850 5852 5851 5850 5850 5849 5849 5848 5848 5848 5847 5848 5848 5847 5846 5845 5844 5841 5840 5837 5835 5832 5830 5826 5824 5821 5818 5815 5811 5806 5802 5799
5846 5851 5850 5846 5845 5845 5845 5846 5845 5846 5847 5846 5845 5845 5844 5844 5843 5844 5843 5842 5842 5844 5842 5840 5840 5838 5837 5836 5834 5833 5830 5827 5826 5822 5819 5816 5812 5808 5804 5799 5796 5792 5788
5835 5843 5845 5844 5839 5838 5838 5840 5840 5840 5839 5840 5839 5838 5838 5838 5837 5837 5836 5836 5837 5836 5834 5833 5832 5831 5831 5828 5827 5825 5822 5820 5818 5814 5811 5807 5803 5799 5794 5789 5784 5779 5774
5831 5830 5838 5839 5836 5833 5832 5834 5834 5834 5834 5833 5834 5832 5833 5831 5831 5832 5829 5829 5830 5829 5827 5826 5825 5823 5823 5821 5820 5818 5815 5812 5809 5805 5801 5796 5792 5787 5782 5776 5769 5762 5757
5827 5827 5827 5833 5831 5828 5825 5825 5826 5826 5827 5827 5827 5826 5825 5824 5825 5825 5823 5822 5822 5822 5820 5819 5818 5816 5815 5814 5812 5810 5808 5805 5800 5795 5791 5786 5780 5773 5766 5759 5753 5748 5743
5819 5821 5820 5824 5826 5824 5819 5816 5817 5818 5819 5821 5820 5819 5819 5818 5817 5818 5817 5815 5816 5814 5813 5812 5810 5808 5806 5803 5802 5800 5797 5796 5794 5789 5782 5774 5767 5760 5753 5747 5739 5733 5728
5819 5818 5815 5816 5818 5818 5814 5810 5809 5810 5810 5813 5812 5811 5812 5811 5810 5811 5810 5808 5810 5808 5806 5805 5803 5800 5797 5795 5792 5789 5786 5783 5778 5775 5771 5764 5755 5746 5739 5731 5723 5716 5710
5810 5812 5812 5807 5808 5809 5807 5804 5800 5802 5803 5803 5803 5803 5804 5803 5802 5802 5802 5801 5801 5800 5799 5797 5795 5792 5789 5787 5783 5780 5776 5771 5766 5761 5756 5751 5741 5732 5723 5715 5708 5701 5692
5799 5799 5799 5800 5797 5797 5796 5795 5792 5792 5793 5794 5795 5795 5795 5794 5794 5794 5793 5792 5792 5790 5788 5786 5783 5781 5778 5776 5772 5768 5765 5761 5756 5750 5744 5737 5729 5721 5710 5699 5691 5682 5673
Wind_Speed
8 4 7 9 10 10 9 7 7 5 4 4 3 3 3 3 2 2 2 4 4 4 4 5 6 6 7 9 11 12 13 12 13 12 11 11 11 11 10 8 8 9 9
8 6 5 6 8 9 8 6 5 6 6 3 3 3 2 1 1 4 4 5 5 5 4 4 4 5 6 8 9 10 11 11 12 11 10 10 10 11 10 9 9 10 10
10 8 4 4 7 8 7 5 3 3 5 5 3 4 2 1 3 4 5 7 8 8 8 8 7 6 7 7 8 9 10 11 10 10 10 10 10 10 9 9 9 10 10
10 9 7 5 6 7 7 5 3 3 2 3 2 2 3 3 4 7 10 11 11 12 11 11 10 9 9 8 8 9 9 9 10 9 9 9 11 10 10 10 9 10 11
10 10 8 7 7 6 5 5 4 4 4 2 1 1 1 4 7 9 10 9 10 11 11 10 11 10 9 9 8 7 7 7 8 8 7 8 8 8 9 9 10 11 11
13 13 10 9 9 8 6 5 6 3 5 5 4 4 4 6 8 9 7 7 8 9 9 8 8 8 8 8 7 7 6 6 7 7 7 7 8 9 9 9 8 8 8
12 13 12 9 9 9 8 5 5 5 4 5 4 5 7 8 8 6 6 6 6 6 6 6 6 6 6 7 8 8 9 9 10 11 10 7 7 7 7 8 9 9 9
11 12 12 10 9 10 10 8 5 4 5 5 7 6 7 9 8 6 5 4 3 2 3 4 5 5 5 5 6 8 9 9 10 10 11 11 11 11 10 10 10 10 11
11 10 11 11 10 10 12 10 8 7 7 7 8 9 10 11 10 9 6 4 2 3 5 6 7 7 8 9 8 9 9 9 10 11 14 14 15 17 18 19 20 20 19
12 10 11 12 12 11 12 12 11 10 9 10 11 12 13 13 13 11 9 9 8 9 9 10 11 12 12 12 11 11 12 13 13 13 16 18 20 22 23 23 22 22 22
16 13 13 14 13 12 12 13 13 13 12 11 14 15 16 15 15 16 15 14 13 13 13 13 13 15 16 16 15 16 17 18 20 20 20 21 22 23 24 25 25 25 25
19 16 15 14 14 12 14 14 16 16 14 14 15 18 18 18 18 19 17 17 17 17 17 17 18 18 18 19 19 18 20 21 22 20 22 24 26 25 25 25 26 27 28
20 20 18 16 15 14 15 15 17 19 18 17 17 18 19 21 22 22 22 22 21 21 20 21 22 21 20 21 22 23 23 23 22 22 23 24 28 30 30 31 32 31 31
24 24 21 18 17 14 17 17 16 20 20 19 19 19 18 21 22 21 22 25 26 24 25 24 20 19 20 21 20 21 23 24 24 24 26 28 29 29 31 32 34 34 34
26 27 24 22 19 16 16 19 17 18 20 21 19 20 21 22 22 24 23 23 23 24 25 25 23 21 21 21 23 24 24 25 25 25 27 28 29 31 33 34 34 36 37
22 26 27 25 25 19 17 16 18 20 20 21 20 20 20 20 21 22 23 22 22 25 25 24 23 24 25 26 26 25 27 27 25 26 29 32 34 35 35 36 37 39 41
14 22 25 27 27 27 22 18 17 19 23 23 21 23 23 22 21 23 24 21 24 24 24 25 25 26 26 27 27 26 27 28 28 29 31 34 35 37 38 40 42 43 45
15 10 23 25 27 29 29 24 21 18 22 25 22 25 26 25 24 24 23 25 25 27 25 26 27 28 28 27 28 28 30 30 32 34 35 38 41 43 44 45 48 49 51
25 15 10 22 29 29 29 28 28 24 22 23 25 25 26 26 27 25 25 27 27 26 28 29 29 30 29 28 30 30 32 33 34 36 39 43 45 47 49 51 52 55 54
35 23 18 16 20 30 32 30 31 29 29 25 26 27 27 27 27 26 26 26 25 27 29 29 29 31 29 31 32 33 33 36 37 41 44 46 47 49 51 53 54 53 54
34 36 25 20 22 27 35 32 33 31 30 30 28 29 28 30 28 27 28 27 25 27 29 30 29 31 31 33 34 34 36 38 41 45 48 50 53 54 54 54 55 57 60
33 35 34 24 25 25 33 34 33 34 31 30 29 31 30 31 30 28 29 29 28 28 30 31 33 33 34 36 36 38 38 41 45 49 51 54 57 59 59 60 60 63 65
36 31 34 33 28 28 32 36 36 35 34 30 31 33 32 32 31 29 31 33 29 31 32 32 33 34 36 37 39 41 43 44 46 49 53 57 59 60 61 62 65 66 66
38 31 37 41 35 29 31 36 36 36 37 33 34 35 33 33 34 33 32 32 29 31 32 33 35 37 38 41 44 46 46 49 52 53 55 57 59 61 63 65 67 69 69
36 36 38 45 42 34 32 34 38 36 37 37 37 38 34 36 36 35 34 34 32 32 33 35 37 40 41 43 45 47 49 52 55 57 59 59 61 63 66 67 69 70 76
39 47 47 42 40 37 33 32 37 35 36 39 39 39 35 38 39 36 36 36 35 36 37 39 41 43 45 46 47 50 51 54 57 59 60 61 61 65 68 68 72 78 82
Wind_Direction
338 324 29 16 15 13 13 12 18 3 317 252 220 201 190 178 146 53 21 23 41 51 64 71 73 72 69 68 63 58 56 53 46 44 47 52 56 54 60 52 44 44 39
329 348 22 19 7 10 12 8 26 21 6 297 265 245 219 151 39 28 24 43 54 64 74 74 76 77 76 72 67 64 60 55 48 46 55 54 53 49 44 44 36 35 32
320 334 350 358 356 2 7 359 357 9 6 350 326 278 295 3 40 47 74 75 75 79 75 80 79 82 82 78 75 67 57 50 41 38 41 45 44 42 38 35 30 27 25
336 322 316 320 328 352 359 356 301 277 321 332 343 34 29 37 72 87 80 81 79 82 77 71 69 70 73 78 78 75 73 66 59 39 47 39 41 31 33 31 26 19 15
329 325 307 298 296 328 345 348 315 256 257 253 241 17 75 104 104 96 91 88 84 80 76 73 67 65 70 74 78 77 74 69 60 58 41 41 40 40 35 27 19 13 7
329 334 317 291 289 307 319 334 324 283 248 234 182 182 154 130 117 113 114 99 91 82 83 79 76 60 50 52 57 56 53 50 53 64 72 41 29 24 24 22 18 8 358
325 329 335 305 284 292 305 310 319 324 261 234 198 187 169 153 140 138 121 101 95 82 72 65 59 60 46 27 20 18 13 15 16 12 11 18 10 7 1 2 359 355 349
311 322 332 324 290 284 295 294 284 289 280 234 202 208 190 170 160 166 148 127 106 45 23 11 359 1 3 3 351 351 351 351 352 351 338 346 341 335 333 334 334 332 333
294 305 319 329 314 288 279 280 279 272 257 254 228 214 202 196 188 185 190 206 240 289 308 318 319 323 329 327 330 331 332 332 330 331 321 327 328 324 326 328 329 326 325
290 288 301 316 318 300 283 278 274 272 267 244 237 231 219 212 212 214 223 236 249 264 276 292 301 306 311 312 310 311 318 320 320 322 318 321 324 323 322 319 316 315 314
294 292 296 304 311 303 293 277 271 269 266 260 249 242 235 228 227 227 233 242 253 269 270 280 286 291 293 295 304 310 315 317 316 319 317 318 316 314 310 306 305 303 303
288 294 297 301 303 302 292 283 271 268 268 265 259 251 248 240 238 238 243 249 256 268 276 280 290 290 285 286 292 301 305 313 315 318 312 312 317 316 312 305 301 299 299
287 291 292 298 299 300 289 289 276 271 270 269 267 261 257 254 248 245 245 251 260 268 277 281 285 288 288 288 289 293 303 304 307 305 307 310 310 312 311 311 310 307 303
288 291 293 292 293 298 291 286 285 276 274 273 274 272 270 265 263 266 267 266 268 272 281 285 290 286 287 284 288 289 292 292 299 302 305 309 309 310 309 309 306 305 301
290 289 290 289 287 292 292 288 284 279 276 276 278 278 277 275 275 268 274 281 284 285 283 289 292 290 285 288 287 287 291 294 297 300 302 303 304 305 305 306 305 303 300
287 287 286 286 286 283 282 281 280 282 279 277 277 277 277 279 280 282 279 280 283 284 284 283 271 280 280 284 287 288 292 296 300 303 306 311 314 311 310 311 310 308 305
301 293 289 285 285 287 285 276 269 273 276 276 275 276 276 277 280 283 284 283 282 280 278 275 278 281 280 284 287 289 294 297 300 303 308 313 313 308 308 306 306 304 305
324 321 297 288 283 284 285 283 274 268 272 278 276 273 276 278 277 279 283 279 281 280 282 282 282 285 285 288 289 294 296 297 301 310 310 311 310 311 309 307 307 307 305
312 322 308 292 284 279 280 282 283 278 271 274 276 275 275 278 279 280 284 280 284 290 286 287 290 288 288 291 292 295 296 299 304 305 309 307 306 306 307 307 307 305 301
305 315 322 308 290 280 278 279 280 280 280 272 271 275 278 278 281 285 285 285 290 289 289 288 289 290 292 294 297 297 299 300 303 304 305 304 305 306 305 304 303 302 301
301 310 319 315 304 284 279 278 277 276 275 277 274 274 278 279 283 289 290 290 286 286 287 290 291 290 293 293 295 295 296 297 301 303 303 306 308 307 306 305 309 310 308
298 303 308 311 306 289 275 274 274 273 271 272 273 274 276 279 284 286 288 289 290 292 291 293 292 294 295 295 294 293 294 299 301 302 306 307 306 307 310 312 311 308 308
300 301 302 308 304 296 278 272 270 271 274 273 269 267 268 275 278 281 282 285 288 292 291 290 290 291 292 291 291 293 295 299 300 304 307 308 309 311 311 310 309 307 307
286 283 294 300 299 297 283 274 270 269 270 269 268 269 269 273 277 279 281 283 282 285 287 291 292 293 295 297 297 297 299 301 304 304 307 308 310 310 311 311 309 308 307
274 286 287 296 298 293 284 276 272 268 267 266 267 270 270 272 275 281 284 285 286 289 291 294 296 297 296 297 297 299 301 303 305 305 307 309 310 311 311 311 310 310 310
284 291 295 296 292 289 283 279 279 271 265 265 266 268 269 271 274 281 284 289 291 293 297 298 298 298 297 298 299 298 300 302 303 305 307 308 309 311 312 312 311 312 312